Location: Nemiskam
(49.4820°N, 111.2775°W)
Time: 09:31:01
(UTC+00:00)

Envisat - Pass Details

Date: 01 December 2022
Orbit: 763 x 765 km, 98.2° (Epoch: 28 January)

Event Time Altitude Azimuth Distance (km) Brightness Sun altitude
Rises 12:14:07 0° 11° (N) 3,246 6.3 -26.0°
Reaches altitude 10° 12:16:27 10° 8° (N) 2,316 5.5 -25.7°
Enters shadow 12:19:31 35° 352° (N) 1,217 3.9 -25.2°
